Вернуться в каталог

GEESAT 4-02

АктивенНаукаLEO
NORAD 65120·PAYLOAD·🇨🇳 China

Запущен Aug 8, 2025 с Yellow Sea Launch Area

Loading…

Ближайшие Пролёты (ближайшие 24 часа)

TLE

СвежийSource: Space-Track

Эпоха: Sep 14, 2026, 15:15 UTC

1 65120U 25170B   26257.63572575  .00001148  00000-0  16260-3 0  9993
2 65120  49.9851 119.3166 0009682  72.1727 288.0267 14.84264953 59744

Отслеживайте GEESAT 4-02 в реальном времени с AllMySat

Download on the App Store